{"data":{"norad_id":62529,"epoch":"2026-05-25T00:53:09.824064Z","epoch_age_seconds":68248,"freshness":"FRESH","line1":"1 62529U 25004U   26145.03691926  .00016923  00000+0  62285-3 0  9995","line2":"2 62529  42.9955 148.8102 0000651 295.9275  64.1509 15.27592342 78139","mean_motion":15.27592342,"eccentricity":6.51e-5,"inclination_deg":42.9955,"raan_deg":148.8102,"arg_perigee_deg":295.9275,"mean_anomaly_deg":64.1509,"bstar":0.00062285,"rev_number":7813,"period_min":94.265987096707,"perigee_km":482.56547909146,"apogee_km":483.45880070947,"semimajor_km":6861.1491399005,"source":"CELESTRAK","updated_at":"2026-05-25T13:38:19.705614Z"}}